Location: Unspecified
(0.0000°N, 0.0000°E)
Time: 12:56:58
(UTC+00:00)

Tiangong 2 - Visible Passes

Search period start: 21 May 2018 00:00
Search period end: 31 May 2018 00:00
Orbit: 382 x 386 km, 42.8° (Epoch: 21 May)

Date Brightness Start Highest point End Pass type
(mag) Time Alt. Az. Time Alt. Az. Time Alt. Az.
21 May 4.8 04:30:49 10° NE 04:31:05 10° NE 04:31:22 10° NE visible
22 May 1.2 05:04:48 10° NW 05:07:57 78° NE 05:11:06 10° SE visible
23 May 3.3 04:08:15 25° NE 04:08:15 25° NE 04:10:53 10° ESE visible
24 May 2.3 04:46:00 26° S 04:46:00 26° S 04:47:55 10° SSE visible
